Temp
5 5 5 5 5 5 5 6 6 6 6 6 6 6 6 6 6 5 5 5 5 5 5 5 5 4 4 4 4 4 4 4 4 4 4 4 4 4 4 4 4 4
5 5 5 5 5 5 5 5 5 6 6 6 6 6 6 6 6 5 5 5 5 5 5 5 4 4 4 4 4 4 4 4 4 4 4 4 4 4 4 4 4 4
5 5 5 5 5 5 5 5 5 5 5 5 6 6 5 5 5 5 5 5 5 5 5 4 4 4 4 4 4 4 4 4 4 4 4 4 4 4 4 4 3 3
5 5 5 5 5 5 5 5 5 5 5 5 5 5 5 5 5 5 5 5 5 5 5 5 5 4 4 4 4 4 4 4 4 4 4 4 4 4 4 4 3 3
5 5 5 5 5 5 5 5 5 5 5 5 5 5 5 5 5 5 5 5 5 5 5 5 5 5 4 4 4 4 4 4 4 4 4 4 4 4 4 4 3 3
5 5 5 4 4 4 4 4 4 4 4 4 4 4 4 5 5 5 5 5 5 5 5 5 5 5 5 4 4 4 4 4 4 4 4 4 4 4 4 4 3 3
5 5 4 4 4 4 4 4 4 4 4 4 4 4 4 4 4 5 5 5 5 5 5 5 5 5 5 5 5 4 4 4 4 4 4 4 4 3 3 3 3 3
5 4 4 4 4 4 4 4 4 4 3 4 4 4 4 4 4 4 4 4 4 5 5 5 5 5 5 5 5 5 5 4 4 4 4 4 4 3 3 3 3 3
5 4 4 4 4 4 4 4 4 4 3 3 3 3 3 4 4 4 4 4 4 4 4 4 4 4 4 5 5 5 5 5 4 4 4 4 3 3 3 3 3 3
4 4 4 4 4 4 4 4 4 4 3 3 3 3 3 3 3 3 3 3 4 4 4 4 4 4 4 4 4 4 4 4 4 4 4 4 3 3 3 3 3 3
5 4 4 4 4 4 4 4 4 4 4 3 3 3 3 3 3 3 3 3 3 3 3 3 3 3 3 3 3 2 2 2 3 3 3 3 3 2 2 2 2 2
5 5 5 5 5 5 4 4 4 4 4 4 3 3 3 3 3 3 3 2 2 2 2 3 2 2 2 2 1 1 0 0 1 1 1 1 1 1 1 1 1 2
5 5 5 5 5 5 5 4 4 4 4 4 4 3 3 3 3 3 3 2 2 2 2 2 2 2 1 1 0 -0 -0 -0 -0 0 0 0 0 0 0 0 1 1
5 5 5 5 5 5 5 4 4 4 4 4 4 3 3 3 3 3 3 3 3 2 2 2 2 2 1 1 1 1 1 0 0 0 0 0 0 0 0 0 0 0
5 5 5 5 5 5 4 4 4 4 4 4 4 4 4 3 3 3 3 3 3 3 2 2 2 2 2 1 1 1 1 1 1 0 0 0 0 0 0 0 0 0
5 5 4 4 4 4 4 4 4 4 4 4 4 4 4 3 3 3 3 3 3 3 2 2 2 2 1 1 1 1 1 1 0 0 0 0 0 0 0 0 0 0
5 4 4 4 4 4 4 4 4 4 4 4 4 4 4 4 3 3 3 3 3 3 2 2 2 2 1 1 1 1 1 1 0 0 -0 0 0 0 0 0 0 0
4 4 4 4 4 4 4 4 4 4 4 4 4 4 4 3 3 3 3 3 3 2 2 2 2 2 2 1 1 1 1 1 1 0 -0 -0 -0 -0 -0 0 0 0
4 4 4 4 4 4 4 4 4 4 4 4 3 3 3 3 3 3 3 3 3 3 2 2 2 2 2 2 2 1 1 1 1 1 0 -0 -0 -0 -0 -0 -0 -0
4 4 4 4 4 4 4 4 4 4 3 3 3 3 3 3 3 3 3 3 3 3 2 2 3 3 2 2 2 2 2 2 2 1 1 1 0 -0 -0 -0 -1 -1
4 4 4 4 4 4 4 4 4 3 3 3 3 3 3 3 3 3 3 3 3 3 3 3 3 3 3 2 2 2 2 2 2 1 1 1 1 0 0 0 -0 -1
4 4 4 4 4 4 4 4 4 4 3 3 3 3 3 3 3 3 3 3 2 2 3 2 2 3 3 2 2 2 2 2 2 2 1 1 1 1 1 0 0 -0
4 4 4 4 4 4 4 3 3 3 3 3 3 3 3 3 3 3 2 2 2 2 2 2 2 2 2 2 2 2 2 2 2 2 2 2 1 1 1 1 0 0
4 4 4 4 4 3 3 3 3 3 3 3 3 3 3 3 3 2 2 2 2 2 2 2 2 2 2 2 2 2 2 2 2 2 2 2 2 1 1 1 1 1
4 4 4 4 4 3 3 3 3 3 3 3 3 3 3 3 3 3 2 2 2 2 2 2 2 2 2 2 2 2 2 2 2 2 2 2 2 2 2 1 1 1
4 4 4 4 4 4 4 3 3 3 3 3 3 3 3 3 3 3 3 3 2 2 2 2 3 3 2 2 2 2 2 2 2 2 2 2 2 2 2 2 1 1
Height
3118 3118 3117 3117 3117 3116 3116 3116 3116 3116 3116 3116 3116 3117 3117 3117 3117 3117 3118 3118 3119 3119 3119 3119 3119 3120 3120 3120 3121 3122 3122 3122 3123 3123 3123 3123 3123 3123 3124 3124 3124 3125
3118 3117 3117 3117 3117 3117 3116 3116 3115 3115 3115 3116 3115 3115 3115 3115 3115 3116 3116 3116 3117 3117 3117 3117 3118 3118 3118 3118 3119 3120 3120 3121 3121 3121 3121 3122 3122 3122 3122 3122 3122 3122
3117 3117 3117 3116 3116 3116 3116 3116 3115 3115 3115 3115 3115 3115 3115 3114 3114 3114 3114 3114 3114 3114 3115 3115 3116 3116 3116 3116 3117 3118 3118 3118 3119 3119 3119 3120 3120 3120 3120 3121 3120 3121
3117 3116 3116 3116 3115 3115 3115 3115 3115 3115 3115 3114 3114 3114 3114 3113 3113 3113 3113 3113 3113 3112 3112 3113 3113 3114 3114 3114 3115 3115 3116 3116 3116 3117 3117 3117 3118 3118 3118 3118 3119 3119
3115 3115 3115 3115 3114 3114 3114 3114 3114 3114 3114 3114 3113 3113 3112 3112 3112 3112 3112 3112 3112 3112 3111 3111 3111 3111 3112 3112 3112 3113 3113 3113 3113 3114 3114 3115 3115 3115 3116 3116 3116 3117
3114 3114 3114 3114 3113 3113 3113 3113 3112 3111 3111 3111 3112 3111 3111 3111 3111 3110 3110 3110 3110 3110 3110 3110 3110 3110 3110 3110 3110 3110 3111 3111 3111 3111 3111 3112 3112 3113 3113 3113 3114 3114
3112 3112 3112 3112 3112 3112 3111 3111 3110 3110 3109 3108 3109 3109 3109 3109 3109 3109 3109 3109 3108 3108 3108 3107 3107 3108 3108 3108 3108 3108 3108 3108 3108 3108 3108 3109 3109 3110 3110 3110 3111 3111
3109 3108 3107 3108 3109 3109 3109 3109 3108 3108 3108 3107 3106 3107 3107 3107 3107 3107 3107 3107 3107 3106 3106 3105 3105 3105 3105 3105 3105 3105 3105 3105 3105 3106 3106 3106 3106 3106 3107 3107 3107 3108
3105 3103 3103 3105 3106 3107 3108 3108 3107 3107 3106 3106 3105 3105 3105 3105 3105 3105 3105 3105 3105 3104 3104 3104 3103 3103 3102 3102 3102 3102 3102 3102 3102 3102 3102 3103 3103 3103 3104 3104 3104 3104
3103 3102 3103 3104 3106 3106 3107 3107 3106 3106 3105 3105 3104 3104 3104 3103 3103 3103 3103 3102 3102 3102 3102 3102 3102 3101 3100 3100 3099 3099 3099 3099 3099 3099 3099 3100 3100 3100 3100 3100 3100 3101
3104 3104 3104 3105 3105 3105 3105 3105 3105 3105 3104 3103 3103 3103 3102 3102 3102 3102 3101 3101 3100 3100 3100 3100 3099 3099 3098 3098 3097 3097 3097 3096 3096 3097 3097 3096 3097 3097 3097 3098 3098 3097
3104 3104 3104 3104 3104 3104 3104 3104 3104 3103 3103 3102 3102 3101 3101 3100 3100 3100 3099 3099 3099 3098 3098 3097 3097 3096 3096 3096 3095 3095 3095 3095 3094 3095 3095 3094 3094 3094 3094 3094 3094 3094
3104 3104 3104 3104 3104 3103 3103 3103 3102 3102 3102 3101 3100 3100 3099 3099 3098 3098 3097 3097 3097 3097 3096 3095 3095 3094 3094 3093 3092 3092 3093 3093 3093 3093 3093 3093 3092 3092 3092 3092 3092 3092
3104 3104 3104 3103 3103 3102 3102 3102 3101 3101 3100 3100 3099 3099 3098 3098 3097 3096 3095 3095 3095 3094 3094 3093 3092 3091 3091 3091 3089 3089 3089 3090 3091 3091 3091 3090 3090 3090 3090 3089 3089 3089
3103 3103 3102 3102 3102 3101 3101 3101 3100 3100 3099 3098 3098 3098 3097 3096 3095 3094 3094 3093 3093 3092 3092 3091 3089 3089 3089 3089 3088 3087 3087 3087 3088 3088 3088 3088 3087 3087 3087 3087 3087 3087
3102 3102 3101 3101 3101 3101 3101 3101 3100 3099 3098 3097 3097 3097 3096 3095 3094 3093 3092 3091 3091 3090 3090 3088 3087 3088 3087 3087 3087 3086 3085 3084 3084 3084 3084 3084 3084 3084 3084 3084 3084 3084
3101 3100 3100 3100 3100 3100 3100 3100 3099 3098 3097 3096 3096 3096 3095 3094 3093 3091 3090 3089 3088 3088 3088 3087 3086 3086 3084 3084 3085 3084 3082 3081 3081 3081 3081 3081 3081 3080 3080 3080 3081 3081
3100 3099 3099 3099 3099 3098 3098 3099 3098 3096 3095 3094 3094 3094 3093 3092 3091 3090 3089 3087 3086 3086 3086 3085 3084 3083 3082 3082 3082 3081 3080 3079 3078 3077 3077 3077 3077 3077 3076 3077 3077 3078
3099 3099 3098 3098 3097 3096 3097 3097 3096 3094 3093 3093 3092 3091 3090 3090 3089 3089 3087 3085 3084 3084 3084 3083 3081 3080 3079 3079 3079 3078 3077 3076 3075 3075 3074 3074 3073 3073 3072 3072 3073 3073
3098 3098 3097 3096 3095 3095 3095 3095 3094 3092 3091 3091 3089 3088 3088 3087 3087 3086 3085 3084 3082 3081 3081 3080 3079 3078 3077 3076 3075 3075 3074 3074 3072 3071 3071 3070 3069 3069 3068 3068 3069 3068
3096 3096 3095 3094 3093 3093 3093 3092 3091 3091 3089 3088 3087 3086 3086 3085 3084 3083 3082 3082 3080 3079 3079 3078 3077 3076 3075 3074 3073 3072 3071 3070 3069 3068 3068 3067 3066 3066 3065 3065 3064 3064
3094 3094 3093 3093 3092 3091 3090 3090 3089 3088 3087 3086 3085 3085 3084 3083 3082 3081 3081 3080 3079 3077 3077 3076 3074 3074 3073 3072 3071 3070 3069 3068 3066 3065 3065 3064 3063 3063 3062 3061 3061 3060
3093 3092 3092 3091 3090 3089 3089 3088 3087 3086 3085 3084 3084 3083 3082 3080 3080 3079 3078 3078 3077 3076 3075 3074 3073 3072 3071 3070 3069 3068 3067 3065 3064 3062 3062 3061 3060 3060 3058 3058 3058 3057
3092 3091 3090 3090 3089 3088 3087 3086 3086 3085 3084 3083 3082 3082 3080 3079 3078 3077 3076 3076 3075 3074 3073 3072 3070 3069 3068 3067 3066 3065 3064 3062 3061 3060 3059 3058 3057 3056 3055 3054 3054 3052
3091 3090 3090 3089 3088 3087 3086 3085 3084 3083 3083 3082 3081 3080 3079 3078 3077 3076 3075 3074 3073 3072 3071 3070 3068 3067 3066 3064 3063 3062 3061 3059 3058 3057 3056 3055 3053 3053 3052 3051 3049 3048
3090 3090 3089 3088 3087 3086 3085 3084 3083 3082 3082 3081 3080 3079 3078 3077 3076 3075 3074 3073 3072 3070 3069 3068 3066 3065 3063 3062 3061 3059 3058 3057 3055 3054 3053 3052 3051 3049 3048 3047 3046 3045
Wind_Speed
7 8 8 8 8 9 10 10 9 8 9 11 12 12 12 12 13 14 14 14 14 16 17 18 18 19 21 21 20 20 21 21 20 21 21 21 21 21 21 21 21 21
7 8 9 9 8 8 8 9 10 10 10 10 12 13 13 13 13 14 14 13 13 15 16 18 19 20 21 21 21 21 21 21 21 21 21 21 21 21 21 21 21 21
8 9 9 10 11 11 10 10 10 12 13 13 12 12 13 14 14 14 14 14 14 15 16 17 18 20 21 22 22 21 21 22 22 22 21 21 21 21 22 22 22 22
8 9 10 11 12 13 13 13 12 13 14 14 14 14 14 14 15 15 15 15 15 16 17 17 17 18 20 21 22 22 21 22 23 23 22 22 22 22 21 22 23 22
9 9 11 13 13 13 14 15 15 15 15 14 15 16 16 16 16 16 16 16 16 16 17 18 18 18 19 21 22 22 22 23 23 23 23 22 22 23 22 23 23 22
10 10 11 13 14 14 15 16 17 18 18 17 16 17 17 17 17 17 17 17 17 17 17 18 18 18 19 20 21 22 22 23 24 24 24 23 23 23 23 23 23 23
10 10 12 13 15 17 18 19 20 20 21 21 21 20 18 18 17 17 17 18 18 18 18 19 19 19 19 20 20 21 22 23 24 24 25 24 24 24 24 24 24 24
9 8 11 14 16 19 20 22 23 23 23 24 23 22 20 19 19 18 18 18 18 19 19 20 20 20 20 21 20 21 22 23 23 24 25 25 25 25 24 25 25 25
10 9 11 14 16 18 19 21 23 23 24 24 24 23 22 21 21 21 21 21 20 20 20 20 21 22 22 22 22 21 22 22 23 23 24 25 25 25 25 26 26 26
13 13 14 15 16 16 17 17 19 20 21 21 21 22 22 22 22 23 24 24 24 23 22 22 22 22 22 22 22 22 22 22 22 22 23 23 24 25 26 26 27 27
12 13 14 15 15 15 15 14 14 15 17 17 18 19 21 22 22 23 24 25 25 24 24 24 24 22 22 22 21 21 21 21 21 21 20 21 22 23 24 24 25 27
8 9 11 12 13 14 14 14 14 14 14 15 15 17 19 21 21 23 24 24 24 24 24 24 25 25 24 23 21 19 19 20 21 20 18 18 20 22 22 22 23 24
6 7 9 10 11 11 11 12 13 13 14 15 15 16 18 20 21 23 24 24 23 24 24 23 24 24 22 21 21 20 19 20 22 21 18 17 19 21 21 22 23 24
7 8 9 9 10 10 10 11 12 13 13 14 15 16 17 18 19 21 23 24 24 24 23 23 25 26 25 27 28 24 20 20 20 20 19 19 20 21 22 23 24 24
10 10 11 11 12 11 11 12 12 13 13 13 13 15 16 17 17 19 21 23 25 25 25 27 28 28 28 30 29 26 24 21 19 19 20 22 23 24 24 24 25 26
12 12 12 13 14 14 14 14 14 15 15 14 13 14 15 16 16 17 18 19 22 24 26 29 30 28 29 29 27 27 28 25 22 21 22 23 25 25 26 26 26 26
13 14 14 14 15 16 16 15 16 16 16 16 15 15 16 17 16 16 18 19 20 22 24 27 29 29 30 30 29 31 31 30 27 25 24 26 27 28 28 28 27 28
13 14 15 14 15 16 16 16 17 18 18 18 18 17 16 17 17 17 18 20 21 22 23 23 24 25 26 26 27 29 32 33 32 29 27 28 30 31 32 31 29 28
14 15 16 16 17 17 17 17 18 20 20 20 20 19 17 18 19 18 19 21 21 21 22 21 21 21 21 20 20 23 27 31 33 33 31 30 32 34 35 34 32 29
16 16 16 17 18 18 18 18 18 20 20 20 21 20 19 20 20 19 18 19 20 21 20 20 20 20 19 18 18 20 23 26 30 34 34 32 33 34 34 33 32 30
17 17 17 18 19 18 17 17 17 18 18 18 19 19 19 19 18 18 17 16 18 20 20 19 19 19 18 18 19 19 19 21 25 30 32 32 34 36 36 35 33 32
16 16 16 16 17 17 16 16 16 16 17 17 17 17 18 17 16 16 16 16 17 18 18 18 19 19 19 19 19 19 18 18 21 24 25 26 29 31 34 35 35 34
13 14 14 14 15 15 14 14 14 15 16 15 15 15 15 16 15 15 15 16 16 16 18 19 20 20 20 20 20 20 20 20 20 20 21 21 22 24 27 30 31 33
12 12 12 12 13 13 13 13 13 13 14 14 14 14 14 15 14 14 15 16 17 18 19 20 21 21 21 21 20 21 21 21 20 20 21 21 21 22 25 26 26 28
11 11 11 12 12 12 12 13 13 13 14 14 14 14 14 15 15 15 15 16 17 18 19 19 20 20 20 20 20 20 20 20 20 21 21 21 21 22 22 24 24 25
10 11 11 11 12 12 12 12 13 13 13 13 13 13 14 14 15 15 15 15 16 17 18 18 18 19 19 18 18 19 19 19 19 20 20 20 20 20 21 21 22 22
Wind_Direction
321 334 342 351 354 348 341 333 322 306 288 282 279 276 274 273 272 271 272 272 267 265 262 258 253 249 250 252 251 252 254 254 254 254 253 252 251 250 250 249 249 247
317 328 330 333 334 337 338 335 333 325 311 297 286 282 279 276 274 271 271 273 269 266 265 262 258 254 252 253 253 253 256 257 257 257 257 257 257 256 254 252 251 250
310 315 316 319 322 325 329 332 333 328 322 318 306 293 284 279 277 273 270 268 265 262 261 260 259 258 256 254 255 254 255 258 259 259 260 260 260 260 259 258 256 255
295 301 308 313 317 324 329 332 330 323 321 320 314 306 296 288 283 279 276 273 269 265 261 260 257 257 257 256 256 255 254 257 259 261 261 261 262 262 261 261 261 260
286 294 305 311 315 322 327 329 325 320 319 314 308 308 305 301 294 288 285 283 280 276 272 269 265 260 259 259 259 258 255 255 257 259 260 261 263 263 262 262 262 262
281 293 305 311 315 320 323 325 324 322 321 317 311 308 306 305 304 298 295 291 288 284 280 278 276 272 267 264 263 262 259 257 257 257 258 258 260 262 263 264 264 264
279 295 306 308 310 314 317 320 322 322 321 320 319 315 309 307 308 305 301 297 293 289 286 283 282 280 276 272 269 267 264 261 259 259 259 257 258 259 261 263 263 264
269 283 297 304 310 315 317 318 319 319 316 315 317 318 315 311 309 308 305 301 297 293 290 289 287 286 284 280 276 272 269 266 262 261 261 261 259 259 259 261 262 263
276 294 303 310 316 316 316 316 315 314 312 309 309 310 311 310 309 310 309 307 305 301 296 293 291 288 286 285 284 281 276 273 268 264 263 262 263 262 261 261 262 262
311 319 318 316 314 312 311 311 310 308 306 306 305 304 304 304 304 306 306 306 306 305 303 300 296 291 286 284 284 284 283 282 279 274 270 267 266 265 265 264 264 264
326 322 318 313 307 305 305 304 305 305 303 303 304 302 301 300 300 301 301 300 301 304 307 307 305 300 294 286 281 279 281 282 282 282 280 278 276 276 276 275 273 271
325 314 308 303 301 303 304 302 302 302 301 303 304 302 300 300 299 299 299 296 295 300 305 309 308 303 299 292 281 276 277 279 280 283 283 281 282 285 287 287 285 283
326 310 298 297 301 304 305 304 303 302 302 304 303 301 301 300 297 297 297 294 292 295 297 301 297 290 286 281 272 268 272 276 278 281 279 276 276 279 280 281 282 285
325 316 308 308 308 307 306 304 302 304 305 304 303 303 305 303 298 297 293 288 288 292 289 284 279 274 276 280 279 276 273 271 275 279 276 272 271 272 272 272 274 276
316 314 312 312 311 310 310 310 310 310 309 308 310 310 307 305 302 299 292 283 284 289 286 280 275 272 275 281 284 287 283 272 266 267 268 268 269 269 269 270 271 272
309 307 305 306 308 309 311 315 316 314 311 311 316 316 310 307 306 302 297 292 290 290 287 283 279 272 269 272 278 286 289 283 270 261 259 261 264 266 267 268 269 270
305 302 299 301 304 307 311 314 312 308 307 307 311 313 308 306 305 302 299 299 298 293 288 286 284 277 271 273 278 282 286 288 282 273 266 262 261 261 263 266 268 270
305 302 302 302 301 302 305 308 307 305 304 304 304 305 302 299 298 299 299 300 299 297 295 296 297 292 285 283 284 282 282 286 286 283 277 270 266 263 262 262 264 267
307 304 303 302 298 298 302 306 307 304 302 302 301 300 299 297 299 301 300 298 298 300 302 304 306 304 298 293 290 286 284 287 287 285 282 277 274 272 271 269 267 265
304 302 301 299 299 301 304 306 305 303 303 302 299 298 300 303 304 303 298 296 299 304 307 307 307 308 308 303 300 297 293 292 290 285 282 282 279 277 277 277 273 268
303 302 301 301 303 304 307 307 305 305 305 302 301 303 305 305 305 303 300 301 303 305 309 309 308 313 316 312 309 309 304 301 295 287 284 284 282 278 278 281 280 274
310 311 310 310 310 311 313 313 312 310 307 305 308 311 308 305 305 307 308 307 306 307 311 312 312 314 315 311 310 310 308 306 303 296 291 289 287 283 280 280 281 279
323 323 322 322 321 322 322 321 320 317 315 315 319 321 318 315 315 314 313 313 313 315 317 316 313 312 312 311 310 308 306 306 306 303 299 297 295 292 288 284 282 281
332 332 333 333 334 334 333 332 329 328 329 331 333 332 330 329 326 322 319 319 320 320 318 316 314 313 314 314 312 310 308 307 305 303 300 298 296 295 294 292 290 286
338 340 343 343 343 342 340 339 338 338 339 341 340 338 335 335 333 330 326 324 321 320 320 320 319 318 318 318 317 317 317 316 313 310 308 306 303 299 296 295 293 290
358 359 359 356 354 353 350 347 345 346 347 346 343 341 339 338 336 333 330 327 324 322 322 323 322 322 322 323 323 323 321 321 319 317 316 314 311 310 306 302 298 294